This is the latest recevied weather packets stored in our database for station/object KD0SBN-3. If no packets are shown the sender has not sent any weather packets the latest 10 day(s).
| Time | Temp. | Humidity | Pressure | Rain* | Wind** | Luminosity | Snow |
|---|---|---|---|---|---|---|---|
| 1777726830 | 1.67° C | 45% | 1031 hPa | 0 mm | - | 74 W/m² | - |
| 1777726526 | 1.11° C | 46% | 1031 hPa | 0 mm | - | 63 W/m² | - |
| 1777726223 | 0.56° C | 47% | 1030.7 hPa | 0 mm | - | 42 W/m² | - |
| 1777725919 | 0° C | 48% | 1030.9 hPa | 0 mm | - | 37 W/m² | - |
| 1777725617 | 0° C | 49% | 1030.7 hPa | 0 mm | - | 24 W/m² | - |
| 1777725315 | 0° C | 50% | 1030.5 hPa | 0 mm | - | 20 W/m² | - |
| 1777725011 | 0° C | 50% | 1030.6 hPa | 0 mm | - | 17 W/m² | - |
| 1777724708 | 0° C | 51% | 1030.6 hPa | 0 mm | - | 14 W/m² | - |
| 1777724405 | -0.56° C | 51% | 1030.5 hPa | 0 mm | - | 11 W/m² | - |
| 1777724102 | -0.56° C | 53% | 1030.5 hPa | 0 mm | - | 9 W/m² | - |
| 1777723800 | -0.56° C | 52% | 1030.4 hPa | 0 mm | - | 6 W/m² | - |
| 1777723496 | -0.56° C | 53% | 1030.4 hPa | 0 mm | - | 4 W/m² | - |
| 1777723193 | -0.56° C | 52% | 1030.4 hPa | 0 mm | - | 2 W/m² | - |
| 1777722890 | -0.56° C | 53% | 1030.4 hPa | 0 mm | - | 1 W/m² | - |
| 1777722586 | -0.56° C | 54% | 1030.4 hPa | 0 mm | - | 0 W/m² | - |
| 1777722283 | -1.11° C | 54% | 1030.4 hPa | 0 mm | - | 0 W/m² | - |
| 1777721980 | -1.11° C | 56% | 1030.2 hPa | 0 mm | - | 0 W/m² | - |
| 1777721678 | -1.11° C | 57% | 1030.2 hPa | 0 mm | - | 0 W/m² | - |
| 1777721377 | -1.11° C | 56% | 1030.1 hPa | 0 mm | - | 0 W/m² | - |
| 1777721074 | -1.11° C | 56% | 1030.1 hPa | 0 mm | - | 0 W/m² | - |
| 1777720771 | -1.11° C | 57% | 1030.2 hPa | 0 mm | - | 0 W/m² | - |
| 1777720468 | -1.11° C | 56% | 1030.4 hPa | 0 mm | - | 0 W/m² | - |
| 1777720165 | -1.11° C | 57% | 1030.2 hPa | 0 mm | - | 0 W/m² | - |
| 1777719863 | -1.11° C | 57% | 1030.5 hPa | 0 mm | - | 0 W/m² | - |
| 1777719560 | -1.11° C | 58% | 1030.4 hPa | 0 mm | - | 0 W/m² | - |
* Rain latest hour (hover to see other rain measurements)
** Current wind speed in m/s (hover to see current wind gust speed)